Tracking 22081 objects as of 4-Dec-2020
HD Live streaming from Space Station
objects crossing your sky now

SAUDISAT 5A

Track SAUDISAT 5A now!
10-day predictions


NORAD ID: 43831
Int'l Code: 2018-102A
Perigee: 539.9 km
Apogee: 558.0 km
Inclination: 97.6 °
Period: 95.5 minutes
Semi major axis: 6919 km
RCS: Unknown
Launch date: December 7, 2018
Source: Saudi Arabia (SAUD)
Launch site: Jiuquan Satellite Launch Center, China (JSC)
aabbcc
Your satellite tracking list
Your tracking list is empty




NASA's NSSDC Master Catalog

Two Line Element Set (TLE):
1 43831U 18102A   20339.15239221  .00001312  00000-0  88870-4 0  9995
2 43831  97.5573  52.4915 0013099 300.8655  80.9207 15.08154612109719
Source of the keplerian elements: AFSPC